AS211 Weather Reports


time (UTC)temp
C
wind
direction
speed
KPH
gust
KPH
rain 1hr
cm
rain 24hr
cm
rain mn
cm
humidity
%
barometer
mb
20260510142004 5 284 11.3 37.0 0.00 0.71 0.00 76 1016.0
20260510141503 5 312 8.0 24.1 0.00 0.71 0.00 76 1015.9
20260510141003 5 309 14.5 32.2 0.00 0.71 0.00 77 1015.9
20260510140004 4 295 9.7 32.2 0.00 0.71 0.00 78 1015.9
20260510135503 4 303 6.4 32.2 0.00 0.71 0.00 78 1015.9
20260510135004 4 322 9.7 22.5 0.00 0.71 0.00 78 1015.8
20260510134503 4 305 8.0 20.9 0.00 0.71 0.00 78 1015.6
20260510134003 4 292 9.7 20.9 0.00 0.71 0.00 78 1015.6
20260510133504 3 306 8.0 20.9 0.00 0.71 0.00 79 1015.7
20260510132504 4 278 8.0 20.9 0.00 0.71 0.00 79 1015.6
20260510132004 3 331 6.4 22.5 0.00 0.71 0.00 79 1015.6
20260510131504 4 298 9.7 22.5 0.00 0.71 0.00 79 1015.6
20260510131003 4 299 8.0 22.5 0.00 0.71 0.00 78 1015.2
20260510130503 3 306 4.8 16.1 0.00 0.71 0.00 79 1015.6
20260510125504 3 319 8.0 22.5 0.00 0.71 0.00 79 1015.6
20260510124003 3 314 4.8 27.4 0.00 0.71 0.00 80 1014.9
20260510123504 3 271 4.8 27.4 0.00 0.71 0.00 80 1015.2
20260510123004 3 307 4.8 14.5 0.00 0.71 0.00 80 1014.9
20260510121504 3 301 11.3 14.5 0.00 0.71 0.00 80 1014.6
20260510121003 3 352 3.2 16.1 0.00 0.71 0.00 81 1014.6
20260510120503 3 254 3.2 16.1 0.00 0.71 0.00 81 1014.2
20260510120003 3 297 9.7 16.1 0.00 0.71 0.00 81 1014.6
20260510115505 3 211 3.2 14.5 0.00 0.71 0.00 81 1014.2
20260510115003 3 308 4.8 19.3 0.00 0.71 0.00 82 1014.2
20260510114503 2 309 3.2 19.3 0.00 0.71 0.00 82 1013.9
20260510114004 2 319 4.8 19.3 0.00 0.71 0.00 82 1013.9
20260510113504 2 306 4.8 12.9 0.00 0.71 0.00 82 1013.5
20260510113004 2 279 4.8 20.9 0.00 0.71 0.00 83 1013.9
20260510112003 2 176 3.2 20.9 0.00 0.71 0.00 83 1013.5
20260510111503 2 345 3.2 9.7 0.00 0.71 0.00 82 1013.5
20260510111003 2 318 8.0 9.7 0.00 0.71 0.00 82 1013.5
20260510110005 2 293 3.2 4.8 0.00 0.71 0.00 82 1013.2
20260510105504 2 287 1.6 4.8 0.00 0.71 0.00 82 1013.2
20260510105004 2 197 1.6 3.2 0.00 0.71 0.00 82 1012.9
20260510104504 2 318 3.2 3.2 0.00 0.71 0.00 81 1012.5
20260510104003 2 322 0.0 3.2 0.00 0.71 0.00 81 1012.9
20260510103504 2 58 0.0 3.2 0.00 0.71 0.00 81 1012.5
20260510103004 2 71 0.0 3.2 0.00 0.71 0.00 79 1012.5
20260510101005 3 47 0.0 3.2 0.00 0.71 0.00 78 1012.2
20260510100503 3 50 0.0 3.2 0.00 0.71 0.00 77 1012.2
20260510100004 3 87 1.6 3.2 0.00 0.71 0.00 77 1011.9
20260510095503 3 14 1.6 8.0 0.00 0.71 0.00 78 1011.9
20260510095005 2 47 1.6 8.0 0.00 0.71 0.00 78 1012.2
20260510094504 2 28 1.6 8.0 0.00 0.71 0.00 78 1011.9
20260510094004 2 97 1.6 11.3 0.00 0.71 0.00 78 1012.2
20260510093503 3 70 0.0 11.3 0.00 0.71 0.00 77 1011.9
20260510091503 2 58 0.0 4.8 0.00 0.71 0.00 78 1011.2
20260510091003 2 44 0.0 4.8 0.00 0.71 0.00 78 1011.2
20260510090503 2 338 0.0 4.8 0.00 0.71 0.00 79 1011.9
20260510090004 2 72 3.2 4.8 0.00 0.71 0.00 80 1011.5
20260510085503 1 298 0.0 3.2 0.00 0.71 0.00 81 1011.2
20260510085004 1 351 1.6 4.8 0.00 0.71 0.00 82 1011.5
20260510084504 1 47 0.0 4.8 0.00 0.71 0.00 81 1011.2
20260510084005 1 321 3.2 4.8 0.00 0.71 0.00 81 1011.4
20260510083503 1 184 0.0 4.8 0.00 0.71 0.00 81 1011.3
20260510083003 1 276 1.6 4.8 0.00 0.71 0.00 81 1011.2
20260510082504 1 63 0.0 12.9 0.00 0.71 0.00 80 1011.2
20260510081503 2 6 3.2 12.9 0.00 0.71 0.00 81 1011.0
20260510081005 1 35 3.2 12.9 0.00 0.71 0.00 80 1011.2
20260510080504 1 129 3.2 4.8 0.00 0.71 0.00 81 1011.1
20260510075503 1 117 1.6 4.8 0.00 0.71 0.00 82 1010.8
20260510075004 2 118 1.6 4.8 0.00 0.71 0.00 81 1010.8
20260510074504 2 72 1.6 4.8 0.00 0.71 0.00 82 1010.9
20260510074004 2 143 1.6 4.8 0.00 0.71 0.00 83 1011.2
20260510073505 1 30 0.0 4.8 0.00 0.71 0.00 83 1011.2
20260510073004 2 97 0.0 4.8 0.00 0.71 0.00 83 1010.8
20260510072004 2 130 1.6 4.8 0.00 0.71 0.00 81 1010.8
20260510071503 2 143 3.2 4.8 0.00 0.71 0.00 81 1010.8
20260510071005 2 141 3.2 8.0 0.00 0.71 0.00 80 1010.2
20260510070503 2 155 3.2 8.0 0.00 0.71 0.00 81 1010.2
20260510070004 2 100 3.2 8.0 0.00 0.71 0.00 81 1010.5
20260510065502 2 182 3.2 12.9 0.00 0.71 0.00 81 1010.2
20260510065002 2 350 4.8 12.9 0.00 0.71 0.00 80 1010.2
20260510064002 3 293 3.2 9.7 0.00 0.71 0.00 80 1009.8
20260510062502 3 289 0.0 14.5 0.00 0.71 0.00 78 1009.8
20260510062002 3 351 8.0 14.5 0.00 0.71 0.00 78 1009.5
20260510061503 3 314 4.8 14.5 0.00 0.71 0.00 77 1010.2
20260510061002 3 313 1.6 14.5 0.00 0.71 0.00 77 1010.2
20260510060503 3 294 8.0 14.5 0.00 0.71 0.00 77 1010.2
20260510060004 3 50 3.2 14.5 0.00 0.71 0.00 76 1010.2
20260510054502 4 308 9.7 12.9 0.00 0.71 0.00 74 1009.8
20260510053503 4 287 4.8 12.9 0.00 0.71 0.00 73 1009.8
20260510053003 4 274 4.8 12.9 0.00 0.71 0.00 73 1009.5
20260510052502 4 264 3.2 11.3 0.00 0.71 0.00 73 1009.8
20260510052003 5 27 0.0 14.5 0.00 0.71 0.00 73 1009.5
20260510051502 4 298 4.8 14.5 0.00 0.71 0.00 73 1009.5
20260510050505 4 94 0.0 4.8 0.00 0.71 0.00 74 1009.1
20260510045503 5 113 3.2 4.8 0.00 0.71 0.00 73 1009.1
20260510044502 4 144 0.0 8.0 0.00 0.71 0.00 77 1008.8
20260510044003 5 225 3.2 8.0 0.00 0.71 0.00 77 1009.1
20260510043502 5 169 3.2 8.0 0.00 0.71 0.00 77 1008.5
20260510043003 5 190 3.2 4.8 0.00 0.71 0.00 76 1008.5
20260510042503 5 153 1.6 4.8 0.00 0.71 0.00 77 1008.5
20260510042003 5 148 1.6 4.8 0.00 0.71 0.00 75 1008.8
20260510040502 5 155 1.6 4.8 0.00 0.71 0.00 73 1008.5
20260510040003 5 359 1.6 3.2 0.00 0.71 0.00 73 1008.8
20260510034503 5 329 3.2 8.0 0.00 0.71 0.71 75 1007.8
20260510033503 6 350 0.0 4.8 0.00 0.71 0.71 74 1008.5
20260510033003 5 304 0.0 4.8 0.00 0.71 0.71 75 1008.1
20260510031504 6 171 3.2 4.8 0.00 0.71 0.71 77 1008.1
20260510031003 6 170 1.6 4.8 0.00 0.71 0.71 77 1007.8
20260510030502 6 115 1.6 4.8 0.00 0.71 0.71 78 1008.1
20260510030002 6 332 1.6 4.8 0.00 0.71 0.71 77 1008.5
20260510025503 6 164 1.6 8.0 0.00 0.71 0.71 78 1008.5
20260510025002 6 151 0.0 8.0 0.00 0.71 0.71 79 1007.8
20260510024502 6 160 0.0 8.0 0.00 0.71 0.71 78 1008.1
20260510024003 6 136 1.6 4.8 0.00 0.71 0.71 80 1007.8
20260510023503 6 175 0.0 4.8 0.00 0.71 0.71 79 1007.8
20260510023003 6 346 0.0 3.2 0.00 0.71 0.71 79 1008.5
20260510022503 6 148 0.0 3.2 0.00 0.71 0.71 80 1008.1
20260510022003 6 278 0.0 3.2 0.00 0.71 0.71 80 1007.8
20260510021502 6 286 0.0 3.2 0.00 0.71 0.71 80 1007.8
20260510021003 6 294 0.0 3.2 0.00 0.71 0.71 80 1007.8
20260510020503 6 192 0.0 3.2 0.00 0.71 0.71 80 1007.6
20260510020003 6 181 0.0 9.7 0.00 0.71 0.71 80 1007.2
20260510015503 6 107 0.0 9.7 0.00 0.71 0.71 79 1007.5
20260510014503 7 322 3.2 20.9 0.00 0.71 0.71 79 1006.8
20260510014003 7 350 3.2 20.9 0.00 0.71 0.71 79 1006.6
20260510013003 7 338 3.2 24.1 0.00 0.71 0.71 79 1006.7
20260510012504 7 329 6.4 24.1 0.00 0.71 0.71 80 1006.5
20260510012003 7 304 9.7 24.1 0.00 0.71 0.71 80 1006.7
20260510011503 7 299 8.0 24.1 0.00 0.71 0.71 81 1006.1
20260510011003 7 276 4.8 14.5 0.00 0.71 0.71 81 1006.1
20260510010503 7 324 6.4 14.5 0.00 0.71 0.71 82 1006.1
20260510010002 7 293 4.8 14.5 0.00 0.71 0.71 83 1005.8
20260510005003 8 346 3.2 16.1 0.00 0.71 0.71 82 1005.8
20260510004003 8 320 8.0 20.9 0.00 0.71 0.71 81 1005.8
20260510003503 8 301 9.7 20.9 0.00 0.71 0.71 81 1005.8
20260510003004 8 305 9.7 29.0 0.00 0.71 0.71 82 1005.8
20260510002503 9 318 9.7 40.2 0.00 0.71 0.71 82 1005.4
20260510002003 9 287 17.7 40.2 0.00 0.71 0.71 81 1005.4
20260510001503 10 326 14.5 40.2 0.00 0.71 0.71 82 1005.4
20260510001003 9 278 9.7 22.5 0.00 0.71 0.71 90 1005.1
20260510000503 9 182 3.2 4.8 0.00 0.71 0.71 94 1004.7
20260510000004 9 161 1.6 8.0 0.00 0.71 0.71 96 1004.4
20260509235503 9 192 4.8 9.7 0.00 0.71 0.71 97 1004.4
20260509235004 9 165 3.2 11.3 0.00 0.71 0.71 97 1004.4
20260509234503 9 186 4.8 11.3 0.00 0.71 0.71 97 1004.1
20260509234003 9 174 4.8 11.3 0.00 0.71 0.71 97 1004.4
20260509233502 9 158 3.2 8.0 0.00 0.71 0.71 97 1004.1
20260509233003 9 182 8.0 9.7 0.00 0.71 0.71 97 1004.4
20260509232003 9 173 4.8 12.9 0.00 0.71 0.71 97 1004.1
20260509231503 9 219 4.8 12.9 0.00 0.71 0.71 96 1004.1
20260509231003 9 201 11.3 12.9 0.00 0.71 0.71 97 1004.1
20260509230503 9 196 4.8 12.9 0.00 0.71 0.71 97 1004.1
20260509230003 9 123 3.2 12.9 0.00 0.71 0.71 97 1003.7
20260509225003 8 264 0.0 12.9 0.05 0.71 0.71 98 1003.7
20260509224503 8 156 3.2 12.9 0.13 0.71 0.71 98 1003.7
20260509224004 8 179 3.2 12.9 0.23 0.71 0.71 98 1003.4
20260509223003 8 193 3.2 12.9 0.41 0.71 0.71 99 1003.4
20260509222504 8 175 9.7 11.3 0.48 0.71 0.71 99 1003.7
20260509222003 8 184 4.8 16.1 0.51 0.71 0.71 99 1003.7
20260509221003 8 213 0.0 16.1 0.58 0.71 0.71 99 1004.1
20260509220504 7 161 4.8 14.5 0.64 0.71 0.71 99 1003.7
20260509220003 7 214 3.2 14.5 0.66 0.71 0.71 99 1004.1
20260509215503 7 170 4.8 14.5 0.64 0.69 0.69 98 1004.1
20260509214503 8 238 3.2 19.3 0.56 0.58 0.58 98 1004.7
20260509214003 8 213 3.2 19.3 0.48 0.48 0.48 97 1004.1
20260509213003 8 271 4.8 20.9 0.30 0.30 0.30 92 1005.1
20260509212502 10 207 9.7 20.9 0.23 0.23 0.23 88 1004.4
20260509212003 10 243 3.2 19.3 0.20 0.20 0.20 83 1004.1
20260509211504 11 336 4.8 19.3 0.18 0.18 0.18 85 1003.7
20260509211003 11 195 9.7 33.8 0.13 0.13 0.13 85 1003.0
20260509210502 12 177 3.2 33.8 0.08 0.08 0.08 85 1003.4
20260509210005 12 182 4.8 33.8 0.05 0.05 0.05 84 1002.7
20260509205503 12 209 20.9 25.7 0.05 0.05 0.05 82 1003.0
20260509205002 12 190 11.3 32.2 0.03 0.03 0.03 82 1003.0
20260509204504 12 176 4.8 32.2 0.03 0.03 0.03 81 1002.7
20260509204003 13 205 29.0 32.2 0.00 0.00 0.00 78 1002.4
20260509203004 13 200 19.3 37.0 0.00 0.00 0.00 77 1002.4
20260509202502 13 170 16.1 37.0 0.00 0.00 0.00 76 1002.4
20260509201503 13 189 17.7 41.8 0.00 0.00 0.00 75 1002.4
20260509200504 14 202 19.3 41.8 0.00 0.00 0.00 75 1002.4
20260509200005 14 194 12.9 32.2 0.00 0.00 0.00 75 1002.4
20260509195503 14 144 9.7 32.2 0.00 0.00 0.00 74 1002.4
20260509195003 14 199 8.0 32.2 0.00 0.00 0.00 72 1002.4
20260509194504 15 168 11.3 35.4 0.00 0.00 0.00 71 1003.0
20260509194003 15 201 20.9 35.4 0.00 0.00 0.00 69 1003.0
20260509193503 15 200 19.3 35.4 0.00 0.00 0.00 69 1003.0
20260509193005 15 208 9.7 29.0 0.00 0.00 0.00 71 1002.7
20260509192503 14 177 9.7 33.8 0.00 0.00 0.00 72 1003.0
20260509192003 14 204 11.3 35.4 0.00 0.00 0.00 73 1002.7
20260509191504 13 194 19.3 35.4 0.00 0.00 0.00 73 1003.0
20260509191003 13 204 22.5 35.4 0.00 0.00 0.00 73 1003.0
20260509190503 14 194 14.5 35.4 0.00 0.00 0.00 72 1003.0
20260509190003 14 200 12.9 35.4 0.00 0.00 0.00 71 1003.4
20260509185503 14 205 16.1 35.4 0.00 0.00 0.00 70 1003.0
20260509185003 14 184 9.7 41.8 0.00 0.00 0.00 71 1003.4
20260509183503 14 179 19.3 40.2 0.00 0.00 0.00 68 1003.7
20260509183004 14 210 24.1 40.2 0.00 0.00 0.00 67 1003.7
20260509182502 15 193 22.5 33.8 0.00 0.00 0.00 68 1004.1
20260509182004 14 191 16.1 33.8 0.00 0.00 0.00 67 1003.7
20260509181503 15 189 19.3 27.4 0.00 0.00 0.00 67 1003.7
20260509180503 15 175 14.5 32.2 0.00 0.00 0.00 69 1003.4
20260509180003 14 155 19.3 32.2 0.00 0.00 0.00 68 1003.4
20260509175504 15 179 3.2 32.2 0.00 0.00 0.00 69 1003.7
20260509175003 14 209 14.5 27.4 0.00 0.00 0.00 67 1003.4
20260509174503 14 196 8.0 27.4 0.00 0.00 0.00 70 1004.1
20260509173503 15 159 11.3 29.0 0.00 0.00 0.00 68 1004.1
20260509173004 15 204 29.0 29.0 0.00 0.00 0.00 68 1004.4
20260509172504 14 204 16.1 27.4 0.00 0.00 0.00 70 1004.4
20260509172004 15 152 12.9 27.4 0.00 0.00 0.00 69 1005.1
20260509171003 13 164 16.1 24.1 0.00 0.00 0.00 72 1004.7
20260509170503 14 162 12.9 24.1 0.00 0.00 0.00 72 1005.1
20260509165503 13 142 22.5 24.1 0.00 0.00 0.00 73 1005.4
20260509165005 13 215 9.7 20.9 0.00 0.00 0.00 74 1005.4
20260509164503 13 186 12.9 20.9 0.00 0.00 0.00 74 1005.4
20260509164005 13 207 3.2 20.9 0.00 0.00 0.00 74 1005.8
20260509163003 13 182 9.7 24.1 0.00 0.00 0.00 75 1005.8
20260509162503 12 195 9.7 24.1 0.00 0.00 0.00 75 1006.1
20260509161503 12 195 12.9 22.5 0.00 0.00 0.00 76 1006.4
20260509161004 12 213 16.1 27.4 0.00 0.00 0.00 77 1006.4
20260509160503 12 203 14.5 27.4 0.00 0.00 0.00 77 1006.4
20260509160005 12 143 9.7 29.0 0.00 0.00 0.00 77 1006.4
20260509155503 12 175 4.8 29.0 0.00 0.00 0.00 77 1006.1
20260509155003 12 174 11.3 29.0 0.00 0.00 0.00 76 1006.1
20260509154503 12 169 11.3 24.1 0.00 0.00 0.00 77 1006.1
20260509154003 12 211 20.9 25.7 0.00 0.00 0.00 78 1006.4
20260509153505 12 191 12.9 25.7 0.00 0.00 0.00 78 1006.4
20260509153004 11 196 22.5 25.7 0.00 0.00 0.00 78 1006.8
20260509152504 11 182 16.1 24.1 0.00 0.00 0.00 78 1007.1
20260509152005 11 198 11.3 24.1 0.00 0.00 0.00 77 1006.8
20260509151503 12 197 16.1 22.5 0.00 0.00 0.00 78 1006.8
20260509151004 12 188 9.7 22.5 0.00 0.00 0.00 77 1006.8
20260509150503 12 191 9.7 25.7 0.00 0.00 0.00 77 1006.8
20260509150005 12 196 11.3 25.7 0.00 0.00 0.00 76 1006.8
20260509145005 12 186 19.3 32.2 0.00 0.00 0.00 76 1006.8
20260509144503 12 182 11.3 32.2 0.00 0.00 0.00 76 1006.8
20260509143003 11 173 9.7 27.4 0.00 0.00 0.00 77 1006.8